K3CHZ Weather Reports


time (UTC)temp
F
wind
direction
speed
knots
gust
knots
rain 1hr
in
rain 24hr
in
rain mn
in
humidity
%
barometer
mb
20260505124722 62 182 0.9 2.6 0.00 0.00 0.00 65 1012.6
20260505124221 62 182 0.9 2.6 0.00 0.00 0.00 66 1012.6
20260505123723 61 182 0.0 0.9 0.00 0.00 0.00 66 1012.6
20260505123222 61 181 0.0 0.0 0.00 0.00 0.00 67 1012.6
20260505122722 61 181 0.0 0.9 0.00 0.00 0.00 65 1012.5
20260505122221 61 181 0.0 0.9 0.00 0.00 0.00 68 1012.4
20260505121721 61 181 0.0 1.7 0.00 0.00 0.00 68 1012.4
20260505121221 60 181 0.9 2.6 0.00 0.00 0.00 66 1012.4
20260505120723 60 181 0.9 2.6 0.00 0.00 0.00 68 1012.4
20260505120221 59 181 0.0 1.7 0.00 0.00 0.00 70 1012.3
20260505115721 58 180 0.0 0.9 0.00 0.00 0.00 71 1012.3
20260505115222 58 180 0.0 0.0 0.00 0.00 0.00 74 1012.4
20260505114722 58 180 0.0 0.0 0.00 0.00 0.00 73 1012.3
20260505114221 58 180 0.0 1.7 0.00 0.00 0.00 73 1012.3
20260505113721 58 180 0.0 1.7 0.00 0.00 0.00 72 1012.2
20260505113224 58 180 0.0 0.9 0.00 0.00 0.00 74 1012.1
20260505112716 57 180 0.0 0.0 0.00 0.00 0.00 74 1012.1
20260505112215 57 180 0.0 0.0 0.00 0.00 0.00 75 1012.1
20260505111717 57 180 0.0 0.0 0.00 0.00 0.00 74 1012.1
20260505111215 57 180 0.0 0.0 0.00 0.00 0.00 74 1012.0
20260505110717 56 180 0.0 0.0 0.00 0.00 0.00 74 1011.9
20260505110216 56 180 0.0 0.0 0.00 0.00 0.00 76 1011.9
20260505102218 56 180 0.0 0.0 0.00 0.00 0.00 74 1011.4
20260505101721 56 180 0.0 0.0 0.00 0.00 0.00 72 1011.5
20260505101218 56 180 0.0 0.0 0.00 0.00 0.00 74 1011.6
20260505100719 56 180 0.0 0.0 0.00 0.00 0.00 74 1011.4
20260505100218 56 180 0.0 0.0 0.00 0.00 0.00 75 1011.3
20260505095718 57 180 0.0 0.0 0.00 0.00 0.00 73 1011.3
20260505095219 57 180 0.0 0.0 0.00 0.00 0.00 72 1011.3
20260505094718 57 180 0.0 0.0 0.00 0.00 0.00 72 1011.2
20260505094218 57 180 0.0 0.0 0.00 0.00 0.00 71 1011.1
20260505093719 57 180 0.0 0.0 0.00 0.00 0.00 70 1011.1
20260505093220 57 180 0.0 0.0 0.00 0.00 0.00 71 1011.1
20260505092716 57 180 0.0 0.0 0.00 0.00 0.00 70 1011.1
20260505092216 58 180 0.0 0.0 0.00 0.00 0.00 69 1011.1
20260505091716 58 180 0.0 0.0 0.00 0.00 0.00 69 1011.0
20260505091217 58 180 0.0 0.0 0.00 0.00 0.00 70 1011.1
20260505090715 58 180 0.0 1.7 0.00 0.00 0.00 70 1011.1
20260505090215 58 180 0.0 1.7 0.00 0.00 0.00 70 1011.2
20260505085716 58 180 0.9 1.7 0.00 0.00 0.00 69 1011.2
20260505085215 58 180 0.0 0.0 0.00 0.00 0.00 69 1011.2
20260505084716 58 180 0.0 1.7 0.00 0.00 0.00 69 1011.2
20260505084216 58 180 0.0 1.7 0.00 0.00 0.00 69 1011.2
20260505083715 58 180 0.9 1.7 0.00 0.00 0.00 68 1011.1
20260505083216 59 180 0.9 1.7 0.00 0.00 0.00 68 1011.1
20260505082717 59 180 0.9 2.6 0.00 0.00 0.00 68 1011.1
20260505082218 59 180 0.9 2.6 0.00 0.00 0.00 68 1011.1
20260505081717 59 180 0.0 0.0 0.00 0.00 0.00 68 1011.1
20260505081216 59 180 0.0 0.0 0.00 0.00 0.00 67 1011.0
20260505080715 59 180 0.0 1.7 0.00 0.00 0.00 67 1011.0
20260505080217 59 180 0.0 1.7 0.00 0.00 0.00 67 1010.9
20260505075715 59 180 0.0 1.7 0.00 0.00 0.00 67 1010.9
20260505075215 59 180 0.0 1.7 0.00 0.00 0.00 67 1010.9
20260505074715 59 180 0.0 1.7 0.00 0.00 0.00 67 1010.9
20260505074215 59 180 0.0 1.7 0.00 0.00 0.00 67 1010.8
20260505073716 60 180 0.0 0.0 0.00 0.00 0.00 66 1010.8
20260505073215 60 180 0.0 0.0 0.00 0.00 0.00 66 1010.8
20260505072716 60 180 0.0 0.0 0.00 0.00 0.00 66 1010.8
20260505072218 60 180 0.0 1.7 0.00 0.00 0.00 66 1010.7
20260505071718 60 180 0.0 1.7 0.00 0.00 0.00 66 1010.7
20260505071220 60 180 0.0 0.0 0.00 0.00 0.00 66 1010.7
20260505070720 60 180 0.0 0.0 0.00 0.00 0.00 66 1010.7
20260505070219 60 180 0.0 0.0 0.00 0.00 0.00 66 1010.7
20260505065719 60 180 0.0 0.0 0.00 0.00 0.00 66 1010.7
20260505065218 60 180 0.0 0.0 0.00 0.00 0.00 66 1010.6
20260505064718 60 180 0.0 0.0 0.00 0.00 0.00 66 1010.7
20260505064218 60 180 0.0 0.0 0.00 0.00 0.00 66 1010.8
20260505063718 60 180 0.0 0.0 0.00 0.00 0.00 66 1010.8
20260505063218 60 180 0.0 0.0 0.00 0.00 0.00 66 1010.8
20260505062719 60 180 0.0 0.0 0.00 0.00 0.00 65 1010.8
20260505062220 60 180 0.0 0.0 0.00 0.00 0.00 66 1010.8
20260505061720 60 180 0.0 0.0 0.00 0.00 0.00 64 1010.8
20260505061218 60 180 0.0 0.0 0.00 0.00 0.00 64 1010.8
20260505060719 60 180 0.0 0.0 0.00 0.00 0.00 65 1010.9
20260505060218 61 180 0.0 0.0 0.00 0.00 0.00 65 1010.8
20260505055720 61 180 0.0 0.0 0.00 0.00 0.00 63 1010.7
20260505055220 61 180 0.0 0.0 0.00 0.00 0.00 63 1010.8
20260505054719 61 180 0.0 0.0 0.00 0.00 0.00 63 1010.8
20260505054219 61 180 0.0 0.0 0.00 0.00 0.00 63 1010.8
20260505053718 61 180 0.0 0.0 0.00 0.00 0.00 63 1010.9
20260505053220 62 180 0.0 0.0 0.00 0.00 0.00 62 1011.0
20260505052719 62 180 0.0 0.0 0.00 0.00 0.00 62 1010.9
20260505052218 62 180 0.0 0.0 0.00 0.00 0.00 62 1010.9
20260505051719 62 180 0.0 0.0 0.00 0.00 0.00 62 1010.9
20260505051219 62 180 0.0 0.0 0.00 0.00 0.00 62 1011.0
20260505050718 62 180 0.0 0.0 0.00 0.00 0.00 62 1011.1
20260505050219 62 180 0.0 0.0 0.00 0.00 0.00 61 1011.0
20260505041718 63 180 0.0 0.0 0.00 0.00 0.00 60 1010.9
20260505041218 62 180 0.0 0.0 0.00 0.00 0.00 60 1010.9
20260505040722 62 180 0.0 1.7 0.00 0.00 0.00 59 1010.7
20260505040219 62 180 0.9 1.7 0.00 0.00 0.00 59 1010.7
20260505035720 62 180 0.0 0.0 0.00 0.00 0.00 58 1010.7
20260505035218 62 180 0.0 0.0 0.00 0.00 0.00 58 1010.7
20260505034720 63 180 0.0 0.0 0.00 0.00 0.00 58 1010.7
20260505034219 63 180 0.0 0.0 0.00 0.00 0.00 58 1010.8
20260505033719 63 180 0.0 0.0 0.00 0.00 0.00 57 1010.8
20260505033218 63 180 0.0 0.0 0.00 0.00 0.00 57 1010.8
20260505032718 63 180 0.0 0.0 0.00 0.00 0.00 57 1010.9
20260505032219 63 180 0.0 0.0 0.00 0.00 0.00 57 1010.9
20260505031718 63 180 0.0 0.0 0.00 0.00 0.00 57 1010.8
20260505031219 63 180 0.0 0.0 0.00 0.00 0.00 56 1010.8
20260505030721 64 180 0.0 0.9 0.00 0.00 0.00 56 1010.8
20260505030219 64 180 0.0 1.7 0.00 0.00 0.00 55 1010.7
20260505025719 64 180 0.0 1.7 0.00 0.00 0.00 55 1010.7
20260505025218 64 180 0.9 1.7 0.00 0.00 0.00 55 1010.7
20260505024719 63 180 0.0 0.0 0.00 0.00 0.00 55 1010.8
20260505024218 63 180 0.0 0.0 0.00 0.00 0.00 56 1010.8
20260505023719 64 180 0.0 0.0 0.00 0.00 0.00 57 1010.9
20260505023220 64 180 0.0 0.0 0.00 0.00 0.00 56 1010.8
20260505022719 64 180 0.0 0.0 0.00 0.00 0.00 55 1010.8
20260505022218 64 180 0.0 0.0 0.00 0.00 0.00 53 1010.7
20260505021718 64 180 0.0 0.0 0.00 0.00 0.00 53 1010.6
20260505021218 65 180 0.0 0.0 0.00 0.00 0.00 56 1010.6
20260505020718 65 180 0.0 0.0 0.00 0.00 0.00 53 1010.6
20260505020218 65 180 0.0 0.0 0.00 0.00 0.00 51 1010.6
20260505015720 66 180 0.0 0.0 0.00 0.00 0.00 52 1010.6
20260505015219 66 180 0.0 0.0 0.00 0.00 0.00 50 1010.5
20260505014718 66 180 0.0 0.0 0.00 0.00 0.00 50 1010.5
20260505014220 66 180 0.0 0.0 0.00 0.00 0.00 50 1010.3
20260505013719 66 180 0.0 0.0 0.00 0.00 0.00 50 1010.3
20260505013218 66 180 0.0 0.0 0.00 0.00 0.00 50 1010.3
20260505012719 67 180 0.0 0.0 0.00 0.00 0.00 49 1010.3
20260505012222 67 180 0.0 0.9 0.00 0.00 0.00 48 1010.1
20260505011721 67 180 0.0 0.9 0.00 0.00 0.00 48 1010.1
20260505011225 67 180 0.0 0.9 0.00 0.00 0.00 48 1010.1
20260505010721 67 180 0.0 0.0 0.00 0.00 0.00 47 1010.0
20260505010221 67 180 0.0 0.0 0.00 0.00 0.00 47 1010.0
20260505005722 68 180 0.0 0.0 0.00 0.00 0.00 47 1009.9
20260505005221 68 180 0.0 0.0 0.00 0.00 0.00 47 1009.9
20260505004722 68 180 0.0 0.0 0.00 0.00 0.00 46 1010.0
20260505004221 68 180 0.0 0.0 0.00 0.00 0.00 46 1009.9
20260505003722 68 180 0.0 0.0 0.00 0.00 0.00 46 1010.0
20260505003222 69 180 0.0 0.0 0.00 0.00 0.00 45 1009.9
20260505002715 69 180 0.0 0.0 0.00 0.00 0.00 45 1009.9
20260505002216 69 180 0.0 2.6 0.00 0.00 0.00 45 1009.8
20260505001717 69 180 0.0 2.6 0.00 0.00 0.00 44 1009.9
20260505001216 69 180 0.9 2.6 0.00 0.00 0.00 45 1009.8
20260505000716 69 180 0.9 1.7 0.00 0.00 0.00 44 1009.9
20260505000218 69 180 0.0 0.9 0.00 0.00 0.00 44 1009.8
20260504235716 70 180 0.0 0.9 0.00 0.00 0.00 44 1009.8
20260504235216 70 180 0.0 1.7 0.00 0.00 0.00 43 1009.7
20260504234715 70 180 0.0 1.7 0.00 0.00 0.00 43 1009.6
20260504234216 70 180 0.0 1.7 0.00 0.00 0.00 43 1009.6
20260504233716 70 180 0.0 0.9 0.00 0.00 0.00 43 1009.6
20260504233215 70 180 0.0 1.7 0.00 0.00 0.00 42 1009.7
20260504232715 71 180 0.0 2.6 0.00 0.00 0.00 42 1009.6
20260504232217 71 180 0.9 2.6 0.00 0.00 0.00 41 1009.6
20260504231715 71 182 0.9 2.6 0.00 0.00 0.00 41 1009.5
20260504231216 71 182 0.9 2.6 0.00 0.00 0.00 41 1009.6
20260504230715 71 182 1.7 4.3 0.00 0.00 0.00 40 1009.6
20260504230216 72 182 1.7 5.2 0.00 0.00 0.00 40 1009.5
20260504225716 72 209 1.7 5.2 0.00 0.00 0.00 39 1009.6
20260504225217 72 177 0.9 4.3 0.00 0.00 0.00 41 1009.6
20260504224716 72 184 1.7 4.3 0.00 0.00 0.00 38 1009.6
20260504224216 72 220 1.7 5.2 0.00 0.00 0.00 38 1009.7
20260504223716 73 184 2.6 5.2 0.00 0.00 0.00 38 1009.4
20260504223216 73 206 2.6 5.2 0.00 0.00 0.00 38 1009.4
20260504222716 73 179 1.7 4.3 0.00 0.00 0.00 38 1009.4
20260504222219 73 179 1.7 2.6 0.00 0.00 0.00 39 1009.4
20260504221719 73 179 1.7 2.6 0.00 0.00 0.00 38 1009.4
20260504221220 73 179 0.9 2.6 0.00 0.00 0.00 38 1009.5
20260504220718 72 179 0.9 2.6 0.00 0.00 0.00 39 1009.5
20260504220220 72 179 0.0 1.7 0.00 0.00 0.00 38 1009.4
20260504215719 72 179 0.0 2.6 0.00 0.00 0.00 38 1009.4
20260504215219 73 179 0.9 2.6 0.00 0.00 0.00 36 1009.4
20260504214718 73 186 0.9 4.3 0.00 0.00 0.00 37 1009.6
20260504214219 73 200 0.0 4.3 0.00 0.00 0.00 37 1009.6
20260504213719 73 198 1.7 5.2 0.00 0.00 0.00 37 1009.6
20260504213221 73 202 1.7 5.2 0.00 0.00 0.00 38 1009.5
20260504212719 73 87 0.0 2.6 0.00 0.00 0.00 37 1009.6
20260504212223 73 170 0.0 2.6 0.00 0.00 0.00 37 1009.7
20260504211722 73 190 0.0 2.6 0.00 0.00 0.00 38 1009.7
20260504211223 73 190 0.0 4.3 0.00 0.00 0.00 38 1009.7
20260504210722 73 190 1.7 4.3 0.00 0.00 0.00 36 1009.7
20260504210222 73 256 1.7 4.3 0.00 0.00 0.00 35 1009.6
20260504205723 73 206 1.7 4.3 0.00 0.00 0.00 35 1009.6
20260504205223 73 156 0.0 1.7 0.00 0.00 0.00 35 1009.7
20260504204723 73 252 0.0 4.3 0.00 0.00 0.00 35 1009.6
20260504204221 73 243 0.0 4.3 0.00 0.00 0.00 38 1009.6
20260504203722 73 190 1.7 4.3 0.00 0.00 0.00 37 1009.6
20260504203222 73 66 1.7 4.3 0.00 0.00 0.00 35 1009.7
20260504202722 73 198 0.0 4.3 0.00 0.00 0.00 37 1009.8
20260504202503 73 198 0.0 4.3 0.00 0.00 0.00 35 1009.9
20260504202004 73 173 0.9 4.3 0.00 0.00 0.00 40 1010.2
20260504201503 73 143 0.9 2.6 0.00 0.00 0.00 37 1010.2
20260504201004 73 178 0.9 5.2 0.00 0.00 0.00 37 1010.2
20260504200216 73 206 0.9 4.3 0.00 0.00 0.00 36 1010.3
20260504195717 73 195 0.0 4.3 0.00 0.00 0.00 37 1010.3
20260504195216 73 312 0.9 4.3 0.00 0.00 0.00 37 1010.4
20260504194716 73 198 0.0 2.6 0.00 0.00 0.00 38 1010.6
20260504194215 73 214 1.7 2.6 0.00 0.00 0.00 38 1010.6
20260504193717 73 198 1.7 2.6 0.00 0.00 0.00 38 1010.7
20260504193216 73 178 0.0 4.3 0.00 0.00 0.00 37 1010.9
20260504192716 73 178 0.9 4.3 0.00 0.00 0.00 41 1011.1
20260504192215 73 220 0.9 4.3 0.00 0.00 0.00 35 1011.1
20260504191715 73 212 1.7 6.1 0.00 0.00 0.00 38 1011.2
20260504191216 72 291 0.9 6.1 0.00 0.00 0.00 40 1011.5
20260504190717 72 216 0.9 6.1 0.00 0.00 0.00 36 1011.5
20260504190217 72 188 1.7 6.1 0.00 0.00 0.00 37 1011.4
20260504185715 72 21 0.9 4.3 0.00 0.00 0.00 37 1011.5
20260504185215 72 218 1.7 4.3 0.00 0.00 0.00 40 1011.5
20260504184718 72 351 0.9 4.3 0.00 0.00 0.00 36 1011.6
20260504184216 72 180 0.9 2.6 0.00 0.00 0.00 38 1011.7
20260504183717 72 299 1.7 5.2 0.00 0.00 0.00 39 1011.8
20260504183217 72 231 1.7 5.2 0.00 0.00 0.00 38 1011.8
20260504182717 72 177 1.7 5.2 0.00 0.00 0.00 38 1011.9
20260504182222 72 164 0.9 5.2 0.00 0.00 0.00 37 1012.0
20260504181723 71 261 0.9 5.2 0.00 0.00 0.00 41 1012.0
20260504181222 71 266 1.7 4.3 0.00 0.00 0.00 38 1012.1
20260504180724 71 175 0.9 4.3 0.00 0.00 0.00 37 1012.3
20260504180222 71 182 0.9 2.6 0.00 0.00 0.00 36 1012.3
20260504175722 71 281 0.0 1.7 0.00 0.00 0.00 39 1012.2
20260504175222 71 161 0.0 1.7 0.00 0.00 0.00 38 1012.3
20260504174723 70 161 0.0 5.2 0.00 0.00 0.00 39 1012.3
20260504174221 70 144 1.7 5.2 0.00 0.00 0.00 39 1012.4
20260504173723 70 196 0.9 2.6 0.00 0.00 0.00 38 1012.5
20260504173221 70 242 0.9 2.6 0.00 0.00 0.00 38 1012.6
20260504172719 69 268 0.9 4.3 0.00 0.00 0.00 37 1012.6
20260504172220 69 188 1.7 4.3 0.00 0.00 0.00 36 1012.7
20260504171719 69 193 0.0 4.3 0.00 0.00 0.00 37 1012.7
20260504171220 69 172 1.7 4.3 0.00 0.00 0.00 37 1012.8
20260504170719 69 167 0.9 2.6 0.00 0.00 0.00 39 1012.9
20260504170218 69 167 0.9 2.6 0.00 0.00 0.00 37 1012.9
20260504160216 68 293 1.7 4.3 0.00 0.00 0.00 40 1013.5
20260504150722 65 277 0.9 4.3 0.00 0.00 0.00 40 1014.1
20260504150222 65 227 0.0 2.6 0.00 0.00 0.00 40 1014.2
20260504141216 62 188 0.0 1.7 0.00 0.00 0.00 50 1014.2
20260504140716 61 194 0.0 1.7 0.00 0.00 0.00 48 1014.2
20260504140216 61 194 0.0 2.6 0.00 0.00 0.00 52 1014.2
20260504130717 55 179 0.9 2.6 0.00 0.00 0.00 58 1014.7
20260504130216 54 194 0.9 2.6 0.00 0.00 0.00 57 1014.7